Regional Weather Roundup
Issued by NWS

Home | Current Version | Previous Version | Text Only | Print | Product List | Glossary Off
Versions: 1 2 3 4 5 6 7 8 9 10 11 12 13 14 15 16 17 18 19 20 21 22 23 24 25 26 27 28 29 30 31 32 33 34 35 36 37 38 39 40 41 42 43 44 45 46 47 48 49 50

000
ASUS43 KFSD 300410
RWRSD

WEATHER ROUNDUP FOR SOUTH DAKOTA
NATIONAL WEATHER SERVICE SIOUX FALLS SD
1000 PM CST THU JAN 29 2015

NOTE: "FAIR" INDICATES FEW OR NO CLOUDS BELOW 12,000 FEET WITH NO
SIGNIFICANT WEATHER AND/OR OBSTRUCTIONS TO VISIBILITY.


SDZ001>005-009-010-012>017-300500-
NORTHWEST AND NORTH CENTRAL SOUTH DAKOTA

CITY           SKY/WX    TMP DP  RH WIND       PRES   REMARKS
BUFFALO          N/A     28  12  51 SE8       30.26F WCI  20
FAITH            N/A     25  15  66 S13       30.37F WCI  14
MOBRIDGE       CLEAR     21  18  88 E7        30.43F WCI  12
$$

SDZ012>016-024>037-041>051-057-063-072>074-300500-
SOUTHWEST AND SOUTH CENTRAL SOUTH DAKOTA

CITY           SKY/WX    TMP DP  RH WIND       PRES   REMARKS
RAPID CTY ARPT CLEAR     29   9  43 SE5       30.35F WCI  24
PIERRE         CLEAR     20  16  84 E6        30.46S WCI  12
CUSTER         CLEAR     27  16  63 SW5       30.31F WCI  22
ELLSWORTH AFB  CLEAR     31   9  39 S9        30.34F WCI  23
PHILIP         CLEAR     22  15  75 E7        30.41F WCI  13
PINE RIDGE     CLEAR     22  13  68 NW6       30.37F WCI  14
WINNER         FAIR      26  19  74 SE9       30.47F WCI  17
$$

SDZ004>011-016>023-039-040-300500-
NORTHEAST SOUTH DAKOTA

CITY           SKY/WX    TMP DP  RH WIND       PRES   REMARKS
ABERDEEN       MOCLDY    19  14  81 N3        30.54R
WATERTOWN      CLOUDY    19  14  81 NW6       30.51R WCI  11
SISSETON         N/A     16  10  77 N10       30.56R WCI   4
$$

SDZ017-020-022-023-036>040-048>070-300500-
SOUTHEAST SOUTH DAKOTA

CITY           SKY/WX    TMP DP  RH WIND       PRES   REMARKS
SIOUX FALLS    CLOUDY    23  17  78 N7        30.53R WCI  15
HURON          CLEAR     20  16  84 E5        30.53F WCI  13
CHAMBERLAIN    CLEAR     20  18  92 SE5       30.51R WCI  14
MITCHELL       CLEAR     21  18  88 E5        30.54F WCI  15
YANKTON        CLEAR     21  18  86 NE5       30.55S WCI  15
$$

ABBREVIATIONS USED IN REMARKS
   TC - TEMPERATURE IN CELSIUS
  WCI - WIND CHILL INDEX
   HX - HEAT INDEX
  VSB - VISIBILITY




USA.gov is the U.S. government's official web portal to all federal, state and local government web resources and services.